| time (UTC) | temp F | wind direction | speed knots | gust knots | rain 1hr in | rain 24hr in | rain mn in | humidity % | barometer mb |
| 20260506024835 | 78 | 165 | 0.9 | 2.6 | 0.00 | 0.00 | 0.00 | 90 | 1008.4 |
| 20260506024332 | 78 | 234 | 1.7 | 2.6 | 0.00 | 0.00 | 0.00 | 90 | 1008.3 |
| 20260506023828 | 78 | 230 | 0.9 | 1.7 | 0.00 | 0.00 | 0.00 | 89 | 1008.0 |
| 20260506023325 | 78 | 223 | 0.9 | 1.7 | 0.00 | 0.00 | 0.00 | 89 | 1008.2 |
| 20260506022822 | 78 | 245 | 0.0 | 0.9 | 0.00 | 0.00 | 0.00 | 89 | 1007.9 |
| 20260506022320 | 78 | 178 | 3.5 | 6.1 | 0.00 | 0.00 | 0.00 | 89 | 1007.9 |
| 20260506021818 | 78 | 154 | 2.6 | 5.2 | 0.00 | 0.00 | 0.00 | 89 | 1007.9 |
| 20260506021314 | 78 | 141 | 0.9 | 1.7 | 0.00 | 0.00 | 0.00 | 89 | 1007.7 |
| 20260506020811 | 78 | 206 | 1.7 | 3.5 | 0.00 | 0.00 | 0.00 | 89 | 1007.8 |
| 20260506020309 | 78 | 207 | 2.6 | 3.5 | 0.00 | 0.00 | 0.00 | 89 | 1007.7 |
| 20260506015807 | 78 | 229 | 0.0 | 0.0 | 0.00 | 0.00 | 0.00 | 88 | 1007.7 |
| 20260506015306 | 78 | 211 | 0.9 | 1.7 | 0.00 | 0.00 | 0.00 | 88 | 1007.7 |
| 20260506014800 | 79 | 212 | 3.5 | 3.5 | 0.00 | 0.00 | 0.00 | 88 | 1007.4 |
| 20260506014257 | 79 | 230 | 1.7 | 2.6 | 0.00 | 0.00 | 0.00 | 88 | 1007.2 |
| 20260506013754 | 79 | 213 | 5.2 | 6.1 | 0.00 | 0.00 | 0.00 | 87 | 1007.5 |
| 20260506013251 | 79 | 178 | 1.7 | 2.6 | 0.00 | 0.00 | 0.00 | 87 | 1007.2 |
| 20260506012748 | 79 | 223 | 2.6 | 3.5 | 0.00 | 0.00 | 0.00 | 87 | 1007.1 |
| 20260506012245 | 79 | 143 | 2.6 | 2.6 | 0.00 | 0.00 | 0.00 | 87 | 1007.0 |
| 20260506011742 | 79 | 205 | 0.9 | 1.7 | 0.00 | 0.00 | 0.00 | 86 | 1007.1 |
| 20260506011238 | 79 | 164 | 1.7 | 2.6 | 0.00 | 0.00 | 0.00 | 86 | 1007.0 |
| 20260506010737 | 79 | 220 | 1.7 | 1.7 | 0.00 | 0.00 | 0.00 | 85 | 1007.0 |
| 20260506010233 | 79 | 223 | 0.9 | 0.9 | 0.00 | 0.00 | 0.00 | 85 | 1007.0 |
| 20260506005731 | 79 | 138 | 2.6 | 3.5 | 0.00 | 0.00 | 0.00 | 85 | 1007.0 |
| 20260506005227 | 80 | 205 | 1.7 | 1.7 | 0.00 | 0.00 | 0.00 | 84 | 1006.7 |
| 20260506004723 | 80 | 224 | 0.9 | 0.9 | 0.00 | 0.00 | 0.00 | 84 | 1006.6 |
| 20260506004221 | 80 | 220 | 0.0 | 0.9 | 0.00 | 0.00 | 0.00 | 83 | 1006.9 |
| 20260506003717 | 80 | 210 | 1.7 | 2.6 | 0.00 | 0.00 | 0.00 | 83 | 1006.6 |
| 20260506003214 | 80 | 248 | 2.6 | 3.5 | 0.00 | 0.00 | 0.00 | 83 | 1006.5 |
| 20260506002709 | 80 | 213 | 2.6 | 2.6 | 0.00 | 0.00 | 0.00 | 83 | 1006.7 |
| 20260506002206 | 80 | 220 | 3.5 | 3.5 | 0.00 | 0.00 | 0.00 | 82 | 1006.5 |
| 20260506001701 | 80 | 228 | 1.7 | 1.7 | 0.00 | 0.00 | 0.00 | 82 | 1006.4 |
| 20260506001159 | 81 | 199 | 1.7 | 2.6 | 0.00 | 0.00 | 0.00 | 81 | 1006.4 |
| 20260506000656 | 81 | 204 | 2.6 | 3.5 | 0.00 | 0.00 | 0.00 | 81 | 1006.4 |
| 20260506000154 | 81 | 181 | 2.6 | 5.2 | 0.00 | 0.00 | 0.00 | 80 | 1006.7 |
| 20260505235651 | 81 | 232 | 2.6 | 2.6 | 0.00 | 0.00 | 0.00 | 80 | 1006.5 |
| 20260505235149 | 81 | 185 | 3.5 | 3.5 | 0.00 | 0.00 | 0.00 | 80 | 1006.5 |
| 20260505234645 | 81 | 271 | 1.7 | 1.7 | 0.00 | 0.00 | 0.00 | 79 | 1006.5 |
| 20260505234142 | 82 | 208 | 0.9 | 1.7 | 0.00 | 0.00 | 0.00 | 78 | 1006.5 |
| 20260505233639 | 82 | 228 | 1.7 | 1.7 | 0.00 | 0.00 | 0.00 | 77 | 1006.5 |
| 20260505233137 | 82 | 202 | 2.6 | 2.6 | 0.00 | 0.00 | 0.00 | 78 | 1006.6 |
| 20260505232634 | 82 | 190 | 2.6 | 3.5 | 0.00 | 0.00 | 0.00 | 78 | 1006.5 |
| 20260505232132 | 82 | 265 | 0.9 | 3.5 | 0.00 | 0.00 | 0.00 | 79 | 1006.4 |
| 20260505231628 | 82 | 231 | 3.5 | 5.2 | 0.00 | 0.00 | 0.00 | 78 | 1006.5 |
| 20260505231127 | 82 | 164 | 1.7 | 1.7 | 0.00 | 0.00 | 0.00 | 79 | 1006.5 |
| 20260505230625 | 82 | 214 | 2.6 | 5.2 | 0.00 | 0.00 | 0.00 | 78 | 1006.6 |
| 20260505230120 | 82 | 207 | 2.6 | 2.6 | 0.00 | 0.00 | 0.00 | 78 | 1006.5 |
| 20260505225617 | 82 | 215 | 1.7 | 1.7 | 0.00 | 0.00 | 0.00 | 78 | 1006.4 |
| 20260505225114 | 82 | 252 | 5.2 | 6.1 | 0.00 | 0.00 | 0.00 | 78 | 1006.2 |
| 20260505224610 | 82 | 199 | 4.3 | 7.8 | 0.00 | 0.00 | 0.00 | 78 | 1006.5 |
| 20260505224108 | 83 | 232 | 3.5 | 5.2 | 0.00 | 0.00 | 0.00 | 77 | 1006.7 |
| 20260505223605 | 82 | 232 | 2.6 | 3.5 | 0.00 | 0.00 | 0.00 | 79 | 1006.6 |
| 20260505223101 | 83 | 227 | 5.2 | 6.1 | 0.00 | 0.00 | 0.00 | 78 | 1006.5 |
| 20260505222557 | 83 | 204 | 3.5 | 7.0 | 0.00 | 0.00 | 0.00 | 78 | 1006.7 |
| 20260505222054 | 83 | 223 | 1.7 | 1.7 | 0.00 | 0.00 | 0.00 | 79 | 1006.6 |
| 20260505221551 | 83 | 215 | 3.5 | 5.2 | 0.00 | 0.00 | 0.00 | 77 | 1006.7 |
| 20260505221047 | 84 | 183 | 4.3 | 7.8 | 0.00 | 0.00 | 0.00 | 76 | 1006.5 |
| 20260505220545 | 83 | 200 | 1.7 | 1.7 | 0.00 | 0.00 | 0.00 | 78 | 1006.8 |
| 20260505220042 | 83 | 207 | 2.6 | 3.5 | 0.00 | 0.00 | 0.00 | 79 | 1006.9 |
| 20260505215540 | 83 | 252 | 3.5 | 5.2 | 0.00 | 0.00 | 0.00 | 77 | 1006.8 |
| 20260505215038 | 84 | 218 | 3.5 | 5.2 | 0.00 | 0.00 | 0.00 | 77 | 1007.0 |
| 20260505214536 | 84 | 234 | 1.7 | 1.7 | 0.00 | 0.00 | 0.00 | 78 | 1006.9 |
| 20260505214032 | 84 | 161 | 2.6 | 3.5 | 0.00 | 0.00 | 0.00 | 78 | 1006.9 |
| 20260505213530 | 84 | 210 | 3.5 | 3.5 | 0.00 | 0.00 | 0.00 | 78 | 1006.9 |
| 20260505213026 | 84 | 228 | 2.6 | 3.5 | 0.00 | 0.00 | 0.00 | 77 | 1007.1 |
| 20260505212522 | 83 | 226 | 1.7 | 1.7 | 0.00 | 0.00 | 0.00 | 77 | 1007.3 |
| 20260505212020 | 83 | 206 | 0.9 | 0.9 | 0.00 | 0.00 | 0.00 | 77 | 1007.3 |
| 20260505211517 | 83 | 207 | 3.5 | 5.2 | 0.00 | 0.00 | 0.00 | 77 | 1007.3 |
| 20260505211014 | 84 | 222 | 2.6 | 3.5 | 0.00 | 0.00 | 0.00 | 77 | 1007.3 |
| 20260505210510 | 84 | 215 | 3.5 | 5.2 | 0.00 | 0.00 | 0.00 | 76 | 1007.4 |
| 20260505210007 | 83 | 194 | 2.6 | 3.5 | 0.00 | 0.00 | 0.00 | 77 | 1007.6 |
| 20260505205506 | 83 | 227 | 1.7 | 1.7 | 0.00 | 0.00 | 0.00 | 78 | 1007.7 |
| 20260505205002 | 83 | 207 | 3.5 | 3.5 | 0.00 | 0.00 | 0.00 | 76 | 1007.8 |
| 20260505204500 | 83 | 252 | 1.7 | 1.7 | 0.00 | 0.00 | 0.00 | 78 | 1007.9 |
| 20260505203957 | 83 | 204 | 1.7 | 2.6 | 0.00 | 0.00 | 0.00 | 78 | 1007.6 |
| 20260505203453 | 84 | 207 | 3.5 | 3.5 | 0.00 | 0.00 | 0.00 | 77 | 1008.0 |
| 20260505202950 | 84 | 195 | 4.3 | 5.2 | 0.00 | 0.00 | 0.00 | 77 | 1008.2 |
| 20260505202447 | 85 | 219 | 1.7 | 1.7 | 0.00 | 0.00 | 0.00 | 77 | 1008.2 |
| 20260505201942 | 84 | 224 | 0.9 | 0.9 | 0.00 | 0.00 | 0.00 | 78 | 1008.1 |
| 20260505201440 | 84 | 209 | 1.7 | 2.6 | 0.00 | 0.00 | 0.00 | 76 | 1008.1 |
| 20260505200938 | 84 | 246 | 1.7 | 2.6 | 0.00 | 0.00 | 0.00 | 77 | 1008.3 |
| 20260505200435 | 85 | 208 | 4.3 | 6.1 | 0.00 | 0.00 | 0.00 | 75 | 1008.2 |
| 20260505195930 | 85 | 228 | 3.5 | 3.5 | 0.00 | 0.00 | 0.00 | 75 | 1008.2 |
| 20260505195428 | 85 | 274 | 2.6 | 3.5 | 0.00 | 0.00 | 0.00 | 75 | 1008.3 |
| 20260505194925 | 85 | 196 | 5.2 | 7.8 | 0.00 | 0.00 | 0.00 | 75 | 1008.3 |
| 20260505194423 | 84 | 228 | 1.7 | 1.7 | 0.00 | 0.00 | 0.00 | 76 | 1008.5 |
| 20260505193922 | 84 | 197 | 0.9 | 0.9 | 0.00 | 0.00 | 0.00 | 79 | 1008.3 |
| 20260505193420 | 83 | 243 | 0.9 | 0.9 | 0.00 | 0.00 | 0.00 | 78 | 1008.6 |
| 20260505192918 | 83 | 217 | 3.5 | 5.2 | 0.00 | 0.00 | 0.00 | 77 | 1008.7 |
| 20260505192416 | 83 | 206 | 4.3 | 5.2 | 0.00 | 0.00 | 0.00 | 76 | 1008.6 |
| 20260505191913 | 84 | 239 | 2.6 | 5.2 | 0.00 | 0.00 | 0.00 | 77 | 1008.6 |
| 20260505191412 | 84 | 212 | 3.5 | 3.5 | 0.00 | 0.00 | 0.00 | 77 | 1008.5 |
| 20260505190908 | 84 | 217 | 2.6 | 3.5 | 0.00 | 0.00 | 0.00 | 78 | 1008.5 |
| 20260505190404 | 84 | 214 | 0.9 | 1.7 | 0.00 | 0.00 | 0.00 | 78 | 1008.6 |
| 20260505185859 | 83 | 250 | 6.1 | 7.8 | 0.00 | 0.00 | 0.00 | 78 | 1008.6 |
| 20260505185356 | 83 | 189 | 3.5 | 3.5 | 0.00 | 0.00 | 0.00 | 78 | 1008.6 |
| 20260505184852 | 83 | 228 | 0.9 | 2.6 | 0.00 | 0.00 | 0.00 | 79 | 1008.6 |
| 20260505184349 | 83 | 230 | 5.2 | 6.1 | 0.00 | 0.00 | 0.00 | 78 | 1008.7 |
| 20260505183846 | 83 | 236 | 0.9 | 0.9 | 0.00 | 0.00 | 0.00 | 78 | 1008.8 |
| 20260505183343 | 83 | 241 | 1.7 | 2.6 | 0.00 | 0.00 | 0.00 | 78 | 1008.9 |
| 20260505182840 | 83 | 195 | 4.3 | 6.1 | 0.00 | 0.00 | 0.00 | 78 | 1008.8 |
| 20260505182336 | 82 | 224 | 3.5 | 5.2 | 0.00 | 0.00 | 0.00 | 80 | 1008.9 |
| 20260505181833 | 81 | 221 | 1.7 | 3.5 | 0.00 | 0.00 | 0.00 | 82 | 1009.1 |
| 20260505181331 | 81 | 211 | 0.9 | 1.7 | 0.00 | 0.00 | 0.00 | 82 | 1009.0 |
| 20260505180827 | 82 | 212 | 1.7 | 1.7 | 0.00 | 0.00 | 0.00 | 80 | 1009.0 |
| 20260505180324 | 81 | 209 | 2.6 | 2.6 | 0.00 | 0.00 | 0.00 | 81 | 1009.3 |
| 20260505175820 | 82 | 226 | 1.7 | 1.7 | 0.00 | 0.00 | 0.00 | 80 | 1009.1 |
| 20260505175317 | 82 | 230 | 1.7 | 1.7 | 0.00 | 0.00 | 0.00 | 79 | 1009.2 |
| 20260505174813 | 82 | 240 | 1.7 | 2.6 | 0.00 | 0.00 | 0.00 | 79 | 1009.1 |
| 20260505174311 | 82 | 251 | 3.5 | 3.5 | 0.00 | 0.00 | 0.00 | 78 | 1009.3 |
| 20260505173806 | 82 | 226 | 1.7 | 1.7 | 0.00 | 0.00 | 0.00 | 80 | 1009.3 |
| 20260505173303 | 82 | 216 | 3.5 | 3.5 | 0.00 | 0.00 | 0.00 | 80 | 1009.3 |
| 20260505172800 | 81 | 232 | 2.6 | 2.6 | 0.00 | 0.00 | 0.00 | 80 | 1009.3 |
| 20260505172257 | 81 | 238 | 4.3 | 6.1 | 0.00 | 0.00 | 0.00 | 80 | 1009.3 |
| 20260505171752 | 81 | 233 | 1.7 | 2.6 | 0.00 | 0.00 | 0.00 | 82 | 1009.3 |
| 20260505171249 | 81 | 236 | 0.0 | 0.9 | 0.00 | 0.00 | 0.00 | 82 | 1009.2 |
| 20260505170746 | 80 | 223 | 3.5 | 5.2 | 0.00 | 0.00 | 0.00 | 82 | 1009.4 |
| 20260505170243 | 80 | 225 | 1.7 | 2.6 | 0.00 | 0.00 | 0.00 | 83 | 1009.4 |
| 20260505165738 | 80 | 219 | 1.7 | 2.6 | 0.00 | 0.00 | 0.00 | 83 | 1009.5 |
| 20260505165234 | 80 | 119 | 3.5 | 5.2 | 0.00 | 0.00 | 0.00 | 84 | 1009.6 |
| 20260505164730 | 80 | 216 | 4.3 | 5.2 | 0.00 | 0.00 | 0.00 | 83 | 1009.5 |
| 20260505164227 | 80 | 223 | 1.7 | 2.6 | 0.00 | 0.00 | 0.00 | 82 | 1009.2 |
| 20260505163725 | 81 | 216 | 1.7 | 2.6 | 0.00 | 0.00 | 0.00 | 81 | 1009.3 |
| 20260505163224 | 81 | 228 | 0.0 | 0.9 | 0.00 | 0.00 | 0.00 | 81 | 1009.4 |
| 20260505162720 | 81 | 201 | 3.5 | 7.0 | 0.00 | 0.00 | 0.00 | 80 | 1009.2 |
| 20260505162217 | 80 | 234 | 1.7 | 1.7 | 0.00 | 0.00 | 0.00 | 82 | 1009.2 |
| 20260505161714 | 80 | 227 | 2.6 | 3.5 | 0.00 | 0.00 | 0.00 | 83 | 1009.1 |
| 20260505161212 | 80 | 230 | 2.6 | 2.6 | 0.00 | 0.00 | 0.00 | 84 | 1009.4 |
| 20260505160709 | 80 | 230 | 0.9 | 1.7 | 0.00 | 0.00 | 0.00 | 84 | 1009.4 |
| 20260505160207 | 80 | 239 | 0.9 | 0.9 | 0.00 | 0.00 | 0.00 | 85 | 1009.3 |
| 20260505153146 | 79 | 225 | 5.2 | 8.7 | 0.00 | 0.00 | 0.00 | 86 | 1009.2 |
| 20260505152643 | 79 | 242 | 0.9 | 1.7 | 0.00 | 0.00 | 0.00 | 86 | 1009.2 |
| 20260505152138 | 78 | 211 | 1.7 | 2.6 | 0.00 | 0.00 | 0.00 | 86 | 1009.2 |
| 20260505151634 | 78 | 216 | 1.7 | 2.6 | 0.00 | 0.00 | 0.00 | 86 | 1009.1 |
| 20260505151131 | 78 | 242 | 0.9 | 1.7 | 0.00 | 0.00 | 0.00 | 87 | 1009.1 |
| 20260505150627 | 78 | 209 | 1.7 | 2.6 | 0.00 | 0.00 | 0.00 | 87 | 1009.2 |
| 20260505150125 | 78 | 214 | 1.7 | 1.7 | 0.00 | 0.00 | 0.00 | 88 | 1009.1 |
| 20260505140553 | 75 | 211 | 0.9 | 1.7 | 0.00 | 0.00 | 0.00 | 92 | 1008.9 |
| 20260505125007 | 73 | 216 | 1.7 | 1.7 | 0.00 | 0.00 | 0.00 | 96 | 1009.0 |
| 20260505124503 | 73 | 222 | 1.7 | 1.7 | 0.00 | 0.00 | 0.00 | 96 | 1009.0 |
| 20260505123959 | 72 | 219 | 1.7 | 2.6 | 0.00 | 0.00 | 0.00 | 97 | 1008.8 |
| 20260505123456 | 72 | 234 | 0.0 | 0.9 | 0.00 | 0.00 | 0.00 | 97 | 1008.7 |
| 20260505122952 | 72 | 214 | 0.0 | 0.0 | 0.00 | 0.00 | 0.00 | 97 | 1008.9 |
| 20260505122449 | 71 | 225 | 0.0 | 0.9 | 0.00 | 0.00 | 0.00 | 98 | 1008.6 |
| 20260505121946 | 71 | 215 | 1.7 | 2.6 | 0.00 | 0.00 | 0.00 | 98 | 1008.5 |
| 20260505121443 | 71 | 220 | 0.9 | 1.7 | 0.00 | 0.00 | 0.00 | 98 | 1008.5 |
| 20260505120939 | 71 | 231 | 0.0 | 0.0 | 0.00 | 0.00 | 0.00 | 98 | 1008.4 |
| 20260505120436 | 71 | 194 | 1.7 | 1.7 | 0.00 | 0.00 | 0.00 | 98 | 1008.1 |
| 20260505115935 | 71 | 214 | 0.0 | 0.9 | 0.00 | 0.00 | 0.00 | 98 | 1008.0 |
| 20260505115431 | 71 | 215 | 0.9 | 1.7 | 0.00 | 0.00 | 0.00 | 98 | 1008.1 |
| 20260505114929 | 71 | 206 | 1.7 | 1.7 | 0.00 | 0.00 | 0.00 | 98 | 1008.2 |
| 20260505114425 | 71 | 219 | 0.9 | 0.9 | 0.00 | 0.00 | 0.00 | 98 | 1008.6 |
| 20260505113921 | 70 | 225 | 0.0 | 0.0 | 0.00 | 0.00 | 0.00 | 98 | 1008.7 |
| 20260505113419 | 70 | 224 | 0.0 | 0.0 | 0.00 | 0.00 | 0.00 | 98 | 1008.5 |
| 20260505112914 | 70 | 227 | 0.0 | 0.0 | 0.00 | 0.00 | 0.00 | 98 | 1008.3 |
| 20260505112412 | 70 | 224 | 0.0 | 0.0 | 0.00 | 0.00 | 0.00 | 97 | 1008.3 |
| 20260505111908 | 71 | 233 | 0.9 | 0.9 | 0.00 | 0.00 | 0.00 | 98 | 1008.1 |
| 20260505111403 | 70 | 227 | 0.0 | 0.0 | 0.00 | 0.00 | 0.00 | 97 | 1008.2 |
| 20260505110859 | 71 | 228 | 0.0 | 0.0 | 0.00 | 0.00 | 0.00 | 97 | 1008.2 |
| 20260505110357 | 70 | 215 | 0.9 | 1.7 | 0.00 | 0.00 | 0.00 | 97 | 1008.0 |
| 20260505101827 | 70 | 227 | 0.0 | 0.0 | 0.00 | 0.00 | 0.00 | 97 | 1008.5 |
| 20260505101322 | 70 | 210 | 0.0 | 0.0 | 0.00 | 0.00 | 0.00 | 96 | 1008.4 |
| 20260505100818 | 70 | 220 | 0.0 | 0.0 | 0.00 | 0.00 | 0.00 | 96 | 1008.5 |
| 20260505100315 | 70 | 227 | 0.0 | 0.0 | 0.00 | 0.00 | 0.00 | 96 | 1008.5 |
| 20260505095811 | 70 | 229 | 0.0 | 0.0 | 0.00 | 0.00 | 0.00 | 96 | 1008.7 |
| 20260505095309 | 70 | 233 | 0.0 | 0.0 | 0.00 | 0.00 | 0.00 | 96 | 1008.7 |
| 20260505094804 | 70 | 247 | 1.7 | 1.7 | 0.00 | 0.00 | 0.00 | 96 | 1008.5 |
| 20260505094301 | 70 | 226 | 0.9 | 0.9 | 0.00 | 0.00 | 0.00 | 96 | 1008.4 |
| 20260505093756 | 70 | 221 | 0.0 | 0.9 | 0.00 | 0.00 | 0.00 | 96 | 1008.4 |
| 20260505093255 | 70 | 226 | 0.0 | 0.0 | 0.00 | 0.00 | 0.00 | 96 | 1008.3 |
| 20260505092751 | 70 | 198 | 0.9 | 0.9 | 0.00 | 0.00 | 0.00 | 96 | 1008.6 |
| 20260505092250 | 70 | 227 | 0.0 | 0.0 | 0.00 | 0.00 | 0.00 | 96 | 1008.6 |
| 20260505091747 | 70 | 227 | 0.0 | 0.0 | 0.00 | 0.00 | 0.00 | 95 | 1008.6 |
| 20260505091245 | 70 | 225 | 0.0 | 0.0 | 0.00 | 0.00 | 0.00 | 95 | 1008.7 |
| 20260505090742 | 70 | 192 | 0.9 | 1.7 | 0.00 | 0.00 | 0.00 | 95 | 1008.7 |
| 20260505090240 | 70 | 227 | 0.9 | 0.9 | 0.00 | 0.00 | 0.00 | 95 | 1008.8 |
| 20260505085737 | 70 | 228 | 0.0 | 0.9 | 0.00 | 0.00 | 0.00 | 95 | 1008.6 |
| 20260505085235 | 70 | 228 | 0.0 | 0.9 | 0.00 | 0.00 | 0.00 | 94 | 1008.7 |
| 20260505084732 | 70 | 233 | 0.0 | 0.0 | 0.00 | 0.00 | 0.00 | 94 | 1008.8 |
| 20260505084232 | 70 | 227 | 0.0 | 0.0 | 0.00 | 0.00 | 0.00 | 94 | 1008.9 |
| 20260505083728 | 70 | 232 | 0.0 | 0.0 | 0.00 | 0.00 | 0.00 | 94 | 1008.9 |
| 20260505083224 | 70 | 221 | 1.7 | 2.6 | 0.00 | 0.00 | 0.00 | 94 | 1008.8 |
| 20260505082721 | 70 | 218 | 1.7 | 1.7 | 0.00 | 0.00 | 0.00 | 94 | 1009.0 |
| 20260505082218 | 70 | 230 | 0.0 | 0.0 | 0.00 | 0.00 | 0.00 | 94 | 1008.9 |
| 20260505081713 | 70 | 227 | 0.0 | 0.0 | 0.00 | 0.00 | 0.00 | 94 | 1008.9 |
| 20260505081211 | 70 | 227 | 0.9 | 0.9 | 0.00 | 0.00 | 0.00 | 94 | 1009.0 |
| 20260505080708 | 70 | 232 | 0.0 | 0.0 | 0.00 | 0.00 | 0.00 | 94 | 1009.0 |
| 20260505080204 | 70 | 227 | 0.9 | 0.9 | 0.00 | 0.00 | 0.00 | 94 | 1009.3 |
| 20260505075700 | 70 | 218 | 0.9 | 1.7 | 0.00 | 0.00 | 0.00 | 93 | 1009.2 |
| 20260505075157 | 70 | 207 | 1.7 | 1.7 | 0.00 | 0.00 | 0.00 | 93 | 1009.0 |
| 20260505074654 | 70 | 231 | 0.9 | 0.9 | 0.00 | 0.00 | 0.00 | 93 | 1009.0 |
| 20260505074151 | 70 | 224 | 1.7 | 2.6 | 0.00 | 0.00 | 0.00 | 93 | 1009.3 |
| 20260505073649 | 70 | 253 | 1.7 | 2.6 | 0.00 | 0.00 | 0.00 | 93 | 1009.0 |
| 20260505073147 | 70 | 235 | 1.7 | 1.7 | 0.00 | 0.00 | 0.00 | 92 | 1009.2 |
| 20260505072642 | 71 | 239 | 1.7 | 1.7 | 0.00 | 0.00 | 0.00 | 92 | 1009.2 |
| 20260505072139 | 71 | 241 | 0.9 | 1.7 | 0.00 | 0.00 | 0.00 | 92 | 1009.3 |
| 20260505071634 | 71 | 225 | 0.9 | 1.7 | 0.00 | 0.00 | 0.00 | 92 | 1009.2 |
| 20260505071132 | 70 | 223 | 1.7 | 2.6 | 0.00 | 0.00 | 0.00 | 92 | 1009.5 |
| 20260505070629 | 70 | 239 | 0.0 | 0.0 | 0.00 | 0.00 | 0.00 | 92 | 1009.6 |
| 20260505070125 | 70 | 239 | 0.0 | 0.0 | 0.00 | 0.00 | 0.00 | 91 | 1009.7 |
| 20260505065622 | 70 | 224 | 0.0 | 0.0 | 0.00 | 0.00 | 0.00 | 91 | 1009.8 |
| 20260505065118 | 70 | 230 | 0.0 | 0.0 | 0.00 | 0.00 | 0.00 | 91 | 1009.7 |
| 20260505064615 | 70 | 230 | 0.9 | 1.7 | 0.00 | 0.00 | 0.00 | 91 | 1009.6 |
| 20260505064114 | 70 | 230 | 0.0 | 0.9 | 0.00 | 0.00 | 0.00 | 91 | 1009.7 |
| 20260505063611 | 70 | 215 | 0.9 | 0.9 | 0.00 | 0.00 | 0.00 | 91 | 1009.6 |
| 20260505063106 | 70 | 219 | 0.9 | 1.7 | 0.00 | 0.00 | 0.00 | 91 | 1009.9 |
| 20260505062603 | 70 | 222 | 0.0 | 0.9 | 0.00 | 0.00 | 0.00 | 91 | 1010.1 |
| 20260505062100 | 70 | 231 | 0.0 | 0.9 | 0.00 | 0.00 | 0.00 | 91 | 1009.9 |
| 20260505061557 | 70 | 214 | 0.9 | 1.7 | 0.00 | 0.00 | 0.00 | 90 | 1009.9 |
| 20260505061056 | 70 | 213 | 0.9 | 1.7 | 0.00 | 0.00 | 0.00 | 90 | 1010.1 |
| 20260505060553 | 70 | 227 | 0.9 | 0.9 | 0.00 | 0.00 | 0.00 | 90 | 1010.2 |
| 20260505060049 | 70 | 205 | 0.9 | 1.7 | 0.00 | 0.00 | 0.00 | 90 | 1010.2 |
| 20260505055544 | 70 | 228 | 0.9 | 0.9 | 0.00 | 0.00 | 0.00 | 90 | 1010.1 |
| 20260505055041 | 70 | 212 | 2.6 | 3.5 | 0.00 | 0.00 | 0.00 | 90 | 1010.3 |
| 20260505054539 | 70 | 206 | 0.9 | 0.9 | 0.00 | 0.00 | 0.00 | 90 | 1010.2 |
| 20260505054037 | 70 | 182 | 2.6 | 3.5 | 0.00 | 0.00 | 0.00 | 90 | 1010.0 |
| 20260505053534 | 70 | 192 | 0.9 | 1.7 | 0.00 | 0.00 | 0.00 | 89 | 1010.0 |
| 20260505053030 | 70 | 236 | 0.0 | 0.9 | 0.00 | 0.00 | 0.00 | 89 | 1010.4 |
| 20260505052527 | 70 | 231 | 0.0 | 0.9 | 0.00 | 0.00 | 0.00 | 89 | 1010.6 |
| 20260505052025 | 71 | 234 | 1.7 | 1.7 | 0.00 | 0.00 | 0.00 | 88 | 1010.7 |
| 20260505051521 | 71 | 217 | 1.7 | 2.6 | 0.00 | 0.00 | 0.00 | 88 | 1010.6 |
| 20260505051020 | 71 | 208 | 2.6 | 3.5 | 0.00 | 0.00 | 0.00 | 88 | 1010.5 |
| 20260505050518 | 70 | 220 | 0.9 | 0.9 | 0.00 | 0.00 | 0.00 | 88 | 1010.5 |
| 20260505041445 | 71 | 221 | 0.9 | 0.9 | 0.00 | 0.00 | 0.00 | 86 | 1010.6 |
| 20260505040942 | 71 | 228 | 0.9 | 1.7 | 0.00 | 0.00 | 0.00 | 86 | 1010.8 |
| 20260505040440 | 71 | 206 | 0.9 | 1.7 | 0.00 | 0.00 | 0.00 | 86 | 1010.7 |
| 20260505035937 | 71 | 215 | 1.7 | 3.5 | 0.00 | 0.00 | 0.00 | 86 | 1010.6 |
| 20260505035433 | 71 | 235 | 0.9 | 1.7 | 0.00 | 0.00 | 0.00 | 86 | 1010.5 |
| 20260505034930 | 71 | 226 | 0.0 | 0.0 | 0.00 | 0.00 | 0.00 | 85 | 1010.8 |
| 20260505034426 | 71 | 215 | 1.7 | 1.7 | 0.00 | 0.00 | 0.00 | 85 | 1010.9 |
| 20260505033924 | 71 | 205 | 0.9 | 1.7 | 0.00 | 0.00 | 0.00 | 85 | 1011.1 |
| 20260505033420 | 72 | 195 | 0.9 | 1.7 | 0.00 | 0.00 | 0.00 | 85 | 1010.9 |
| 20260505032919 | 72 | 206 | 1.7 | 1.7 | 0.00 | 0.00 | 0.00 | 85 | 1010.9 |
| 20260505032415 | 72 | 231 | 0.9 | 0.9 | 0.00 | 0.00 | 0.00 | 84 | 1011.0 |
| 20260505031912 | 72 | 221 | 0.9 | 0.9 | 0.00 | 0.00 | 0.00 | 84 | 1011.0 |
| 20260505031409 | 72 | 221 | 0.9 | 0.9 | 0.00 | 0.00 | 0.00 | 84 | 1011.0 |
| 20260505030906 | 72 | 167 | 2.6 | 5.2 | 0.00 | 0.00 | 0.00 | 84 | 1011.1 |
| 20260505030401 | 72 | 191 | 1.7 | 1.7 | 0.00 | 0.00 | 0.00 | 84 | 1011.0 |
| 20260505025857 | 72 | 196 | 0.9 | 1.7 | 0.00 | 0.00 | 0.00 | 83 | 1010.9 |
| 20260505025355 | 72 | 222 | 0.9 | 1.7 | 0.00 | 0.00 | 0.00 | 83 | 1010.9 |